CW7615 Weather Reports


Display with metric or nautical units.
time (UTC)temp
F
wind
direction
speed
MPH
gust
MPH
rain 1hr
in
rain 24hr
in
rain mn
in
humidity
%
barometer
mb
20260831083021 77 118 3.0 6.0 0.00 0.00 0.00 53 1018.2
20260831082520 77 123 2.0 6.0 0.00 0.00 0.00 53 1018.1
20260831082019 77 138 1.0 4.0 0.00 0.00 0.00 53 1018.0
20260831081521 77 140 1.0 4.0 0.00 0.00 0.00 52 1018.1
20260831081018 76 128 1.0 3.0 0.00 0.00 0.00 52 1018.1
20260831080515 76 127 0.0 3.0 0.00 0.00 0.00 52 1018.2
20260831080027 76 126 1.0 3.0 0.00 0.00 0.00 52 1018.1
20260831075511 75 128 1.0 4.0 0.00 0.00 0.00 53 1018.1
20260831075010 75 128 2.0 4.0 0.00 0.00 0.00 52 1017.9
20260831074508 75 127 2.0 4.0 0.00 0.00 0.00 52 1017.9
20260831074007 76 121 3.0 6.0 0.00 0.00 0.00 51 1017.7
20260831073505 77 136 3.0 7.0 0.00 0.00 0.00 51 1017.7
20260831073005 77 118 1.0 7.0 0.00 0.00 0.00 50 1017.7
20260831072503 77 24 0.0 2.0 0.00 0.00 0.00 49 1017.5
20260831072000 76 16 0.0 2.0 0.00 0.00 0.00 49 1017.4
20260831071601 75 16 1.0 2.0 0.00 0.00 0.00 48 1017.4
20260831071059 74 15 0.0 3.0 0.00 0.00 0.00 50 1017.2
20260831070557 73 15 0.0 4.0 0.00 0.00 0.00 49 1017.1
20260831070055 72 360 3.0 4.0 0.00 0.00 0.00 50 1017.1
20260831065555 72 327 1.0 5.0 0.00 0.00 0.00 51 1017.1
20260831065053 72 331 2.0 6.0 0.00 0.00 0.00 51 1017.1
20260831064553 71 332 3.0 6.0 0.00 0.00 0.00 51 1017.1
20260831064052 71 346 4.0 8.0 0.00 0.00 0.00 51 1017.0
20260831063551 71 333 4.0 8.0 0.00 0.00 0.00 51 1016.8
20260831063050 71 349 2.0 4.0 0.00 0.00 0.00 51 1016.8
20260831062550 71 355 3.0 5.0 0.00 0.00 0.00 51 1016.8
20260831062048 71 5 1.0 4.0 0.00 0.00 0.00 51 1016.8
20260831061548 71 5 2.0 5.0 0.00 0.00 0.00 51 1016.8
20260831061049 71 355 3.0 5.0 0.00 0.00 0.00 50 1016.6
20260831060547 71 351 2.0 5.0 0.00 0.00 0.00 50 1016.5
20260831060050 72 360 2.0 5.0 0.00 0.00 0.00 50 1016.4
20260831055545 72 5 2.0 5.0 0.00 0.00 0.00 50 1016.4
20260831055044 72 36 3.0 6.0 0.00 0.00 0.00 50 1016.3
20260831054544 72 9 4.0 8.0 0.00 0.00 0.00 50 1016.2
20260831054043 72 344 4.0 8.0 0.00 0.00 0.00 50 1016.1
20260831053543 72 360 4.0 8.0 0.00 0.00 0.00 50 1016.1
20260831053043 72 348 4.0 8.0 0.00 0.00 0.00 50 1016.0
20260831052545 72 333 4.0 6.0 0.00 0.00 0.00 50 1016.0
20260831052043 72 345 4.0 6.0 0.00 0.00 0.00 50 1016.1
20260831051552 72 346 4.0 6.0 0.00 0.00 0.00 50 1016.0
20260831051042 72 349 3.0 6.0 0.00 0.00 0.00 50 1016.0
20260831050542 72 331 3.0 5.0 0.00 0.00 0.00 50 1016.0
20260831050041 72 328 3.0 6.0 0.00 0.00 0.00 50 1016.1
20260831045542 72 332 3.0 9.0 0.00 0.00 0.00 51 1016.0
20260831045044 72 330 4.0 9.0 0.00 0.00 0.00 51 1016.0
20260831044540 72 355 5.0 9.0 0.00 0.00 0.00 51 1016.0
20260831044040 72 344 5.0 8.0 0.00 0.00 0.00 51 1016.0
20260831043540 73 344 5.0 9.0 0.00 0.00 0.00 51 1015.9
20260831043040 73 5 5.0 9.0 0.00 0.00 0.00 50 1016.0
20260831042542 73 5 4.0 8.0 0.00 0.00 0.00 50 1016.1
20260831042039 73 329 4.0 9.0 0.00 0.00 0.00 50 1015.8
20260831041539 73 355 5.0 9.0 0.00 0.00 0.00 50 1015.9
20260831041039 73 336 5.0 9.0 0.00 0.00 0.00 51 1015.8
20260831040538 73 355 4.0 9.0 0.00 0.00 0.00 51 1015.9
20260831040038 73 329 4.0 10.0 0.00 0.00 0.00 50 1015.9
20260831035537 73 333 4.0 10.0 0.00 0.00 0.00 50 1016.1
20260831035037 73 329 5.0 10.0 0.00 0.00 0.00 50 1016.1
20260831034545 73 9 5.0 10.0 0.00 0.00 0.00 50 1016.0
20260831034037 73 342 5.0 9.0 0.00 0.00 0.00 50 1016.0
20260831033535 73 347 5.0 10.0 0.00 0.00 0.00 50 1016.0
20260831033035 73 5 5.0 10.0 0.00 0.00 0.00 51 1016.0
20260831032535 73 355 5.0 9.0 0.00 0.00 0.00 51 1016.1
20260831032034 73 360 5.0 9.0 0.00 0.00 0.00 52 1016.1
20260831031535 72 355 4.0 8.0 0.00 0.00 0.00 52 1016.1
20260831031032 72 336 4.0 10.0 0.00 0.00 0.00 52 1016.2
20260831030532 72 355 5.0 10.0 0.00 0.00 0.00 52 1016.4
20260831030032 72 341 3.0 9.0 0.00 0.00 0.00 52 1016.3
20260831025531 72 326 5.0 9.0 0.00 0.00 0.00 53 1016.4
20260831025031 72 351 5.0 9.0 0.00 0.00 0.00 53 1016.5
20260831024534 72 348 5.0 11.0 0.00 0.00 0.00 53 1016.5
20260831024029 72 346 6.0 11.0 0.00 0.00 0.00 54 1016.6
20260831023528 72 350 5.0 10.0 0.00 0.00 0.00 54 1016.6
20260831023028 72 325 4.0 9.0 0.00 0.00 0.00 54 1016.7
20260831022627 72 337 4.0 9.0 0.00 0.00 0.00 54 1016.7
20260831022028 72 337 4.0 6.0 0.00 0.00 0.00 54 1016.7
20260831021530 71 321 3.0 8.0 0.00 0.00 0.00 54 1016.7
20260831021027 71 333 4.0 8.0 0.00 0.00 0.00 54 1016.7
20260831020526 71 343 4.0 9.0 0.00 0.00 0.00 54 1016.7
20260831020027 71 355 4.0 9.0 0.00 0.00 0.00 55 1016.7
20260831015525 71 15 4.0 8.0 0.00 0.00 0.00 55 1016.9
20260831015026 71 333 3.0 8.0 0.00 0.00 0.00 55 1016.9
20260831014528 71 344 4.0 8.0 0.00 0.00 0.00 55 1017.1
20260831014023 71 351 4.0 5.0 0.00 0.00 0.00 55 1017.1
20260831013522 71 313 3.0 5.0 0.00 0.00 0.00 55 1017.1
20260831013021 71 355 3.0 5.0 0.00 0.00 0.00 55 1017.1
20260831012524 71 346 3.0 5.0 0.00 0.00 0.00 55 1017.1
20260831012020 71 343 3.0 5.0 0.00 0.00 0.00 55 1017.1
20260831011533 71 341 3.0 5.0 0.00 0.00 0.00 55 1017.3
20260831011019 71 333 3.0 5.0 0.00 0.00 0.00 55 1017.2
20260831010519 71 313 3.0 6.0 0.00 0.00 0.00 55 1017.2
20260831010019 71 342 3.0 6.0 0.00 0.00 0.00 55 1017.3
20260831005520 71 341 3.0 6.0 0.00 0.00 0.00 55 1017.5
20260831005019 71 343 3.0 8.0 0.00 0.00 0.00 55 1017.5
20260831004518 71 341 4.0 8.0 0.00 0.00 0.00 56 1017.5
20260831004023 71 332 3.0 6.0 0.00 0.00 0.00 56 1017.6
20260831003519 72 348 3.0 6.0 0.00 0.00 0.00 56 1017.6
20260831003018 72 341 3.0 5.0 0.00 0.00 0.00 56 1017.8
20260831002515 72 355 3.0 5.0 0.00 0.00 0.00 56 1017.7
20260831002018 72 355 3.0 6.0 0.00 0.00 0.00 56 1017.7
20260831001515 72 355 3.0 6.0 0.00 0.00 0.00 56 1017.7
20260831001115 72 343 4.0 6.0 0.00 0.00 0.00 56 1017.8
20260831000515 72 342 2.0 6.0 0.00 0.00 0.00 56 1017.8
20260831000014 72 350 3.0 6.0 0.00 0.00 0.00 56 1017.9
20260830235513 72 350 4.0 8.0 0.00 0.00 0.00 56 1017.8
20260830235012 72 360 5.0 8.0 0.00 0.00 0.00 56 1017.9
20260830234512 72 334 3.0 6.0 0.00 0.00 0.00 56 1017.9
20260830234011 72 328 3.0 5.0 0.00 0.00 0.00 56 1018.1
20260830233511 72 346 3.0 5.0 0.00 0.00 0.00 56 1018.0
20260830233011 72 344 3.0 5.0 0.00 0.00 0.00 56 1018.1
20260830232511 72 338 2.0 5.0 0.00 0.00 0.00 56 1018.1
20260830232011 72 314 2.0 5.0 0.00 0.00 0.00 56 1018.1
20260830231510 72 346 2.0 5.0 0.00 0.00 0.00 56 1018.1
20260830231009 72 323 2.0 5.0 0.00 0.00 0.00 56 1018.1
20260830230509 72 328 2.0 5.0 0.00 0.00 0.00 56 1018.1
20260830230009 72 349 2.0 5.0 0.00 0.00 0.00 56 1018.1
20260830225508 72 340 3.0 5.0 0.00 0.00 0.00 57 1017.9
20260830225008 72 350 2.0 5.0 0.00 0.00 0.00 56 1017.9
20260830224507 72 332 1.0 5.0 0.00 0.00 0.00 56 1017.8
20260830224008 73 349 2.0 5.0 0.00 0.00 0.00 56 1017.9
20260830223506 73 346 1.0 5.0 0.00 0.00 0.00 56 1017.7
20260830223005 73 360 2.0 4.0 0.00 0.00 0.00 56 1017.6
20260830222503 73 355 2.0 4.0 0.00 0.00 0.00 56 1017.4
20260830222001 73 355 2.0 4.0 0.00 0.00 0.00 56 1017.5
20260830221608 73 355 2.0 4.0 0.00 0.00 0.00 56 1017.3
20260830221059 73 22 2.0 5.0 0.00 0.00 0.00 56 1017.3
20260830220558 73 351 2.0 5.0 0.00 0.00 0.00 57 1017.3
20260830220058 73 324 3.0 5.0 0.00 0.00 0.00 57 1017.1
20260830215558 73 336 3.0 5.0 0.00 0.00 0.00 57 1017.2
20260830215058 73 336 2.0 5.0 0.00 0.00 0.00 57 1017.2
20260830214617 73 319 2.0 5.0 0.00 0.00 0.00 57 1017.1
20260830214058 73 348 2.0 4.0 0.00 0.00 0.00 57 1017.2
20260830213559 73 5 2.0 3.0 0.00 0.00 0.00 57 1017.2
20260830213056 73 5 1.0 3.0 0.00 0.00 0.00 58 1017.2
20260830212557 73 5 0.0 2.0 0.00 0.00 0.00 57 1017.2
20260830212057 73 5 0.0 4.0 0.00 0.00 0.00 57 1017.1
20260830211559 73 5 0.0 3.0 0.00 0.00 0.00 56 1017.2
20260830211056 73 5 0.0 2.0 0.00 0.00 0.00 56 1017.2
20260830210556 74 5 0.0 4.0 0.00 0.00 0.00 56 1017.1
20260830210116 74 5 2.0 4.0 0.00 0.00 0.00 56 1017.1
20260830205555 74 5 2.0 4.0 0.00 0.00 0.00 56 1017.1
20260830205059 74 5 1.0 4.0 0.00 0.00 0.00 56 1017.0
20260830204601 74 5 2.0 5.0 0.00 0.00 0.00 55 1017.0
20260830204054 74 18 2.0 5.0 0.00 0.00 0.00 55 1017.0
20260830203555 74 21 2.0 5.0 0.00 0.00 0.00 55 1016.9
20260830203101 74 346 2.0 4.0 0.00 0.00 0.00 55 1016.8
20260830202555 74 355 0.0 3.0 0.00 0.00 0.00 55 1016.7
20260830202057 74 355 2.0 4.0 0.00 0.00 0.00 55 1016.8
20260830201555 74 355 2.0 5.0 0.00 0.00 0.00 55 1016.7
20260830201053 75 346 3.0 5.0 0.00 0.00 0.00 55 1016.6
20260830200556 75 317 2.0 5.0 0.00 0.00 0.00 55 1016.7
20260830200053 75 344 3.0 5.0 0.00 0.00 0.00 55 1016.8
20260830195553 75 360 2.0 4.0 0.00 0.00 0.00 55 1016.7
20260830195053 75 49 1.0 2.0 0.00 0.00 0.00 55 1016.8
20260830194553 75 49 0.0 2.0 0.00 0.00 0.00 55 1016.7
20260830194053 75 49 0.0 2.0 0.00 0.00 0.00 54 1016.6
20260830193552 75 49 0.0 3.0 0.00 0.00 0.00 55 1016.5
20260830193053 75 49 1.0 3.0 0.00 0.00 0.00 54 1016.3
20260830192552 75 51 2.0 3.0 0.00 0.00 0.00 55 1016.3
20260830192053 75 88 2.0 3.0 0.00 0.00 0.00 55 1016.3
20260830191553 75 131 0.0 1.0 0.00 0.00 0.00 56 1016.4
20260830191054 76 131 0.0 0.0 0.00 0.00 0.00 56 1016.3
20260830190552 76 131 0.0 0.0 0.00 0.00 0.00 56 1016.3
20260830190123 76 131 0.0 0.0 0.00 0.00 0.00 55 1016.3
20260830185552 76 131 0.0 0.0 0.00 0.00 0.00 55 1016.3
20260830185052 76 131 0.0 0.0 0.00 0.00 0.00 54 1016.3
20260830184607 76 131 0.0 0.0 0.00 0.00 0.00 54 1016.3
20260830184050 76 131 0.0 0.0 0.00 0.00 0.00 53 1016.3
20260830183550 76 131 0.0 0.0 0.00 0.00 0.00 53 1016.3
20260830183100 76 131 0.0 1.0 0.00 0.00 0.00 52 1016.3
20260830182551 76 131 0.0 1.0 0.00 0.00 0.00 50 1016.4
20260830182050 76 131 0.0 1.0 0.00 0.00 0.00 49 1016.3
20260830181552 76 131 0.0 2.0 0.00 0.00 0.00 49 1016.4
20260830181049 76 131 0.0 3.0 0.00 0.00 0.00 47 1016.3
20260830180549 77 131 1.0 4.0 0.00 0.00 0.00 51 1016.4
20260830180050 77 130 2.0 4.0 0.00 0.00 0.00 52 1016.2
20260830175549 78 127 1.0 4.0 0.00 0.00 0.00 51 1016.3
20260830175052 78 127 0.0 2.0 0.00 0.00 0.00 51 1016.2
20260830174604 78 127 0.0 1.0 0.00 0.00 0.00 51 1016.1
20260830174048 78 127 0.0 2.0 0.00 0.00 0.00 51 1016.1
20260830173548 78 127 0.0 3.0 0.00 0.00 0.00 50 1016.2
20260830173049 78 126 0.0 3.0 0.00 0.00 0.00 49 1016.3
20260830172550 78 123 2.0 3.0 0.00 0.00 0.00 49 1016.2
20260830172049 79 123 1.0 6.0 0.00 0.00 0.00 49 1016.2
20260830171549 79 117 2.0 6.0 0.00 0.00 0.00 47 1016.2
20260830171051 80 134 2.0 6.0 0.00 0.00 0.00 48 1016.2
20260830170549 80 118 3.0 6.0 0.00 0.00 0.00 48 1016.2
20260830170048 81 149 2.0 4.0 0.00 0.00 0.00 48 1016.1
20260830165547 81 126 2.0 4.0 0.00 0.00 0.00 48 1016.1
20260830165048 81 125 0.0 2.0 0.00 0.00 0.00 49 1016.0
20260830164555 80 125 0.0 2.0 0.00 0.00 0.00 50 1016.0
20260830164049 80 125 0.0 3.0 0.00 0.00 0.00 50 1016.0
20260830163546 80 125 1.0 3.0 0.00 0.00 0.00 51 1016.1
20260830163045 80 125 2.0 4.0 0.00 0.00 0.00 53 1016.2
20260830162545 79 124 2.0 4.0 0.00 0.00 0.00 53 1016.3
20260830162046 80 129 2.0 5.0 0.00 0.00 0.00 52 1016.2
20260830161550 80 146 2.0 5.0 0.00 0.00 0.00 53 1016.2
20260830161045 80 132 4.0 6.0 0.00 0.00 0.00 54 1016.4
20260830160543 80 129 2.0 4.0 0.00 0.00 0.00 55 1016.3
20260830160045 80 150 1.0 7.0 0.00 0.00 0.00 55 1016.4
20260830155544 80 132 3.0 7.0 0.00 0.00 0.00 53 1016.3
20260830155044 80 128 3.0 7.0 0.00 0.00 0.00 54 1016.2
20260830154543 80 133 2.0 7.0 0.00 0.00 0.00 52 1016.2
20260830154045 81 130 4.0 8.0 0.00 0.00 0.00 50 1016.3
20260830153542 81 133 3.0 9.0 0.00 0.00 0.00 48 1016.4
20260830153043 81 114 4.0 9.0 0.00 0.00 0.00 48 1016.4
20260830152541 81 126 4.0 8.0 0.00 0.00 0.00 49 1016.4
20260830152041 81 108 3.0 8.0 0.00 0.00 0.00 49 1016.4
20260830151542 81 119 5.0 8.0 0.00 0.00 0.00 50 1016.4
20260830151040 81 118 3.0 8.0 0.00 0.00 0.00 50 1016.3
20260830150540 81 111 5.0 8.0 0.00 0.00 0.00 51 1016.3
20260830150040 81 150 3.0 7.0 0.00 0.00 0.00 50 1016.4
20260830145538 81 109 4.0 8.0 0.00 0.00 0.00 49 1016.5
20260830145038 81 143 3.0 8.0 0.00 0.00 0.00 49 1016.5
20260830144538 81 96 4.0 8.0 0.00 0.00 0.00 49 1016.6
20260830144037 81 116 3.0 8.0 0.00 0.00 0.00 50 1016.7
20260830143539 81 93 2.0 8.0 0.00 0.00 0.00 48 1016.6
20260830143039 81 123 4.0 9.0 0.00 0.00 0.00 47 1016.7
20260830142539 82 150 5.0 9.0 0.00 0.00 0.00 46 1016.7
20260830142036 82 175 4.0 9.0 0.00 0.00 0.00 46 1016.7
20260830141536 83 132 4.0 9.0 0.00 0.00 0.00 45 1016.6
20260830141035 82 94 4.0 10.0 0.00 0.00 0.00 45 1016.6
20260830140535 83 124 6.0 10.0 0.00 0.00 0.00 44 1016.7
20260830140035 83 120 6.0 11.0 0.00 0.00 0.00 43 1016.7
20260830135536 83 105 5.0 11.0 0.00 0.00 0.00 42 1016.9
20260830135035 83 122 4.0 10.0 0.00 0.00 0.00 43 1016.8
20260830134541 83 142 3.0 10.0 0.00 0.00 0.00 42 1016.9
20260830134032 83 141 6.0 10.0 0.00 0.00 0.00 41 1017.2
20260830133534 83 134 4.0 9.0 0.00 0.00 0.00 43 1017.2
20260830133031 83 115 4.0 9.0 0.00 0.00 0.00 43 1017.2
20260830132529 83 117 4.0 9.0 0.00 0.00 0.00 41 1017.3
20260830132028 83 107 7.0 9.0 0.00 0.00 0.00 40 1017.5
20260830131529 83 156 3.0 11.0 0.00 0.00 0.00 39 1017.4
20260830131026 83 104 4.0 11.0 0.00 0.00 0.00 39 1017.5
20260830130525 83 107 5.0 10.0 0.00 0.00 0.00 42 1017.5
20260830130037 83 131 6.0 10.0 0.00 0.00 0.00 41 1017.6
20260830125523 83 117 5.0 8.0 0.00 0.00 0.00 41 1017.6
20260830125022 83 153 3.0 9.0 0.00 0.00 0.00 41 1017.8
20260830124522 82 156 5.0 10.0 0.00 0.00 0.00 42 1017.8
20260830124020 82 103 6.0 10.0 0.00 0.00 0.00 39 1017.8
20260830123520 83 129 5.0 10.0 0.00 0.00 0.00 38 1018.0
20260830123020 83 111 5.0 9.0 0.00 0.00 0.00 38 1018.1
20260830122519 82 129 4.0 9.0 0.00 0.00 0.00 37 1017.9
20260830122019 82 153 5.0 9.0 0.00 0.00 0.00 39 1018.1
20260830121519 82 140 4.0 9.0 0.00 0.00 0.00 39 1018.1
20260830121020 81 138 3.0 8.0 0.00 0.00 0.00 39 1018.1
20260830120517 81 117 5.0 9.0 0.00 0.00 0.00 40 1018.0
20260830120022 82 121 5.0 9.0 0.00 0.00 0.00 39 1018.2
20260830115517 82 111 4.0 9.0 0.00 0.00 0.00 41 1018.3
20260830115017 81 98 5.0 9.0 0.00 0.00 0.00 41 1018.3
20260830114517 81 113 5.0 10.0 0.00 0.00 0.00 42 1018.3
20260830114018 81 108 3.0 10.0 0.00 0.00 0.00 43 1018.3
20260830113514 81 135 5.0 9.0 0.00 0.00 0.00 44 1018.3
20260830113016 81 116 5.0 9.0 0.00 0.00 0.00 44 1018.4
20260830112513 81 123 6.0 9.0 0.00 0.00 0.00 44 1018.4
20260830112012 82 142 6.0 9.0 0.00 0.00 0.00 42 1018.3
20260830111512 82 126 5.0 9.0 0.00 0.00 0.00 38 1018.4
20260830111011 82 117 4.0 8.0 0.00 0.00 0.00 40 1018.4
20260830110510 82 125 4.0 10.0 0.00 0.00 0.00 41 1018.4
20260830110009 82 142 4.0 10.0 0.00 0.00 0.00 41 1018.4
20260830105508 82 116 4.0 10.0 0.00 0.00 0.00 42 1018.3
20260830105006 82 125 5.0 9.0 0.00 0.00 0.00 43 1018.3
20260830104520 82 127 5.0 9.0 0.00 0.00 0.00 43 1018.4
20260830104006 81 105 4.0 8.0 0.00 0.00 0.00 44 1018.4
20260830103507 81 113 4.0 8.0 0.00 0.00 0.00 44 1018.4
20260830103005 81 117 3.0 8.0 0.00 0.00 0.00 45 1018.5
20260830102503 81 119 4.0 8.0 0.00 0.00 0.00 45 1018.5
20260830102059 81 136 5.0 8.0 0.00 0.00 0.00 45 1018.4
20260830101558 81 109 4.0 10.0 0.00 0.00 0.00 46 1018.4
20260830101057 81 122 4.0 10.0 0.00 0.00 0.00 47 1018.4
20260830100555 81 117 5.0 10.0 0.00 0.00 0.00 47 1018.3
20260830100054 81 123 6.0 10.0 0.00 0.00 0.00 47 1018.3
20260830095553 81 120 5.0 8.0 0.00 0.00 0.00 46 1018.2
20260830095052 81 111 4.0 8.0 0.00 0.00 0.00 46 1018.2
20260830094551 81 115 4.0 8.0 0.00 0.00 0.00 46 1018.0
20260830094051 81 111 4.0 8.0 0.00 0.00 0.00 47 1018.0
20260830093547 81 112 4.0 8.0 0.00 0.00 0.00 47 1018.0
20260830093046 81 121 4.0 8.0 0.00 0.00 0.00 47 1018.0
20260830092548 81 139 4.0 9.0 0.00 0.00 0.00 48 1017.9
20260830092043 81 125 4.0 9.0 0.00 0.00 0.00 47 1017.9
20260830091541 81 119 3.0 8.0 0.00 0.00 0.00 46 1018.0
20260830091041 81 121 4.0 8.0 0.00 0.00 0.00 46 1018.0
20260830090539 81 106 4.0 8.0 0.00 0.00 0.00 46 1018.0
20260830090038 81 123 3.0 8.0 0.00 0.00 0.00 46 1018.0
20260830085535 82 115 5.0 7.0 0.00 0.00 0.00 45 1017.9
20260830085036 81 114 1.0 6.0 0.00 0.00 0.00 46 1018.0
20260830084533 81 107 1.0 6.0 0.00 0.00 0.00 47 1018.0
20260830084031 81 120 1.0 6.0 0.00 0.00 0.00 47 1017.9